Theta_e
335 339 344 342 346 346 346 344 344 345 346 347 347 347 346 346 346 344 342 341 337 337 337 336 336 336 335 335 334 333 332 333 334 334 334 333 333 333 333 333 335 333 335
338 338 343 344 347 345 345 344 343 345 346 346 347 347 346 346 345 344 342 342 337 336 335 335 335 335 335 335 334 333 332 330 331 331 331 331 332 332 332 332 331 331 331
339 337 339 344 345 344 344 343 341 342 343 344 346 346 346 345 343 340 338 338 337 336 335 334 334 335 335 335 334 334 333 331 329 328 327 329 330 331 331 330 330 330 330
338 336 335 343 345 344 342 341 340 340 340 341 342 345 344 342 342 341 337 337 336 336 335 334 333 334 334 334 334 333 332 330 329 327 327 328 327 330 330 328 328 329 329
335 338 337 343 344 343 341 340 339 338 338 338 338 338 339 338 338 338 338 336 335 336 334 334 334 333 332 331 331 331 329 328 326 329 328 329 329 331 331 330 328 328 328
334 341 341 344 344 342 341 339 338 337 337 336 336 336 335 336 335 334 335 335 338 337 336 334 333 332 330 330 330 329 328 326 326 328 327 327 328 332 332 331 331 330 330
333 340 341 343 343 342 341 340 338 337 336 336 336 337 335 336 333 332 332 331 331 331 332 331 330 329 330 331 332 331 328 325 325 326 325 326 327 329 332 331 329 331 332
333 338 341 336 340 341 342 340 339 336 336 335 334 335 336 336 335 334 333 332 331 330 329 328 329 330 331 331 331 330 328 328 329 329 330 331 324 328 332 333 330 329 331
333 336 341 341 339 335 337 338 338 338 337 336 334 333 334 335 335 334 332 331 329 330 329 329 329 330 331 332 331 330 329 328 330 331 329 331 325 329 331 333 332 332 332
333 334 335 338 340 340 338 332 333 335 335 335 334 332 330 331 331 331 330 329 330 330 330 330 330 331 332 332 332 330 328 328 329 329 329 328 328 333 333 332 334 333 333
333 334 334 336 339 336 335 331 330 331 332 331 331 327 328 336 334 332 327 328 329 330 332 332 332 333 332 330 330 328 326 328 327 327 328 329 331 333 332 333 335 336 336
331 333 333 333 335 337 333 335 336 336 337 338 338 337 338 336 336 332 327 325 327 327 329 331 332 331 328 330 330 328 329 329 328 328 329 329 331 332 331 331 332 333 334
331 332 334 334 337 337 336 336 337 337 338 338 338 338 338 337 338 337 336 336 336 326 333 332 332 331 331 331 330 330 329 329 329 329 328 328 329 331 332 331 331 332 335
329 330 332 336 336 338 338 336 337 337 338 337 337 336 337 335 336 335 334 335 335 335 334 333 333 333 332 331 331 330 330 330 329 329 329 324 327 330 331 332 332 333 334
328 330 332 337 336 337 337 337 337 336 336 336 336 335 335 335 335 335 335 335 335 335 334 333 333 333 332 332 331 331 330 331 331 331 331 321 323 327 331 334 334 334 335
332 333 335 335 336 335 334 335 335 335 335 336 336 336 335 336 336 336 336 336 336 336 335 335 334 333 333 333 332 332 331 331 331 332 331 331 324 327 329 333 334 336 336
333 334 333 333 334 332 332 333 334 336 335 336 337 337 337 337 337 337 337 337 337 338 336 336 335 335 333 333 332 332 332 332 332 331 331 332 331 324 325 329 332 333 335
334 333 333 332 332 333 332 334 335 336 337 338 338 338 338 337 338 337 337 337 338 336 335 334 334 331 331 330 328 329 331 332 330 329 329 330 331 330 328 327 328 330 332
334 334 334 334 334 334 335 335 336 337 337 338 338 338 337 337 336 336 336 334 334 332 333 331 330 330 329 329 328 328 327 326 327 326 326 328 329 330 330 327 322 321 326
334 334 335 335 335 336 336 336 337 337 337 338 337 336 334 332 330 331 330 329 330 330 330 329 327 328 326 326 323 321 323 324 325 325 326 327 328 328 329 328 328 326 321
329 331 332 332 333 334 334 333 333 334 335 331 327 319 319 319 318 321 322 322 323 323 322 322 322 321 321 322 319 319 320 321 322 323 325 325 326 326 326 325 324 324 323
324 325 327 328 329 331 333 333 335 335 326 318 315 312 312 314 316 316 317 317 318 318 319 319 319 318 319 320 316 313 311 314 319 321 321 322 323 324 323 323 323 322 322
316 316 316 316 318 319 325 330 330 326 319 313 310 309 310 312 312 312 313 314 315 316 316 316 316 315 312 316 317 312 308 306 311 316 318 319 320 320 321 321 320 319 318
309 311 311 311 311 310 314 314 312 311 304 304 305 308 308 308 307 307 308 309 309 310 310 311 312 313 313 310 313 314 313 312 307 305 314 315 316 315 318 319 318 317 317
305 305 305 304 303 304 305 306 305 304 302 302 303 304 304 304 303 302 303 304 304 306 306 307 307 308 309 309 309 309 309 310 311 309 304 308 312 311 315 313 315 317 316
299 300 300 299 298 300 300 301 299 298 299 298 298 299 299 299 298 297 299 299 299 300 300 301 302 303 303 304 304 305 304 303 304 303 303 304 305 309 314 312 311 313 315
Wind_Speed
10 12 9 10 10 12 13 13 11 10 13 13 16 13 14 13 15 15 15 15 12 12 12 13 13 13 14 13 11 12 14 12 13 13 13 12 9 12 12 14 10 11 12
14 13 10 10 14 14 14 13 11 11 12 14 14 14 13 14 15 15 14 12 12 12 11 12 12 12 12 12 11 9 11 12 12 11 9 7 11 11 10 11 11 11 11
14 13 12 9 14 14 13 13 12 11 11 12 13 14 16 16 15 14 14 11 10 11 11 11 11 11 12 12 12 12 10 11 10 8 4 6 9 9 9 9 9 9 9
13 12 13 10 13 14 13 12 11 11 10 10 10 13 14 14 13 14 10 10 10 11 10 10 10 10 10 11 11 10 9 8 8 5 5 6 6 8 8 8 7 8 7
12 11 12 11 13 12 12 11 11 10 9 9 8 9 10 12 12 9 9 8 8 10 10 10 10 9 9 9 9 8 8 6 3 3 5 6 5 8 6 7 6 6 7
12 11 13 11 13 12 10 10 10 9 9 8 8 8 10 9 8 8 8 8 9 8 9 7 7 7 7 8 7 7 6 6 7 5 5 5 5 9 9 6 5 6 6
12 10 13 9 11 10 11 9 9 8 8 8 8 7 8 8 7 8 8 8 8 8 7 6 6 6 7 7 6 6 6 4 5 5 5 5 4 5 8 8 7 6 7
11 10 11 8 8 9 9 8 7 8 7 7 6 6 6 6 6 6 6 5 6 6 5 5 5 5 4 4 3 3 3 3 1 4 4 3 3 5 7 7 6 7 8
11 10 9 10 9 6 7 7 6 6 7 6 5 5 5 4 4 4 3 3 3 3 3 3 3 3 4 4 4 3 3 4 6 3 4 3 2 5 7 9 8 8 9
10 10 9 8 9 8 7 6 6 6 6 5 5 5 4 2 2 2 0 3 5 5 4 3 3 4 6 6 6 6 5 8 6 4 4 4 5 9 9 10 10 9 10
8 9 9 9 8 6 6 6 6 6 4 4 5 4 3 1 1 1 5 5 5 6 7 6 6 6 6 8 6 8 9 4 6 5 4 2 7 10 11 12 12 11 12
11 9 8 9 8 7 5 7 6 5 4 3 2 0 2 3 3 4 3 4 5 5 7 8 8 8 8 4 3 6 4 6 6 6 5 3 8 12 13 13 13 14 14
10 9 8 8 7 7 5 4 3 3 3 3 3 2 1 2 1 2 3 2 3 1 4 4 4 4 5 5 5 5 5 6 5 5 6 4 9 11 13 14 14 14 14
11 11 9 9 7 6 4 5 4 3 3 3 3 3 2 2 2 3 3 3 3 3 5 4 4 6 7 7 8 8 9 8 6 6 8 7 10 14 15 16 16 17 18
11 11 10 10 9 7 7 4 4 4 4 3 3 3 4 3 3 4 4 4 5 4 4 5 6 6 7 8 8 9 9 10 10 7 6 7 9 14 17 19 19 19 20
11 11 10 10 9 7 6 6 4 4 4 4 4 4 5 4 4 4 5 5 5 5 5 6 6 7 8 8 10 10 11 11 11 11 9 9 10 13 17 18 18 21 21
9 8 10 10 9 8 8 7 5 4 4 4 4 5 5 5 5 6 6 6 6 5 7 7 7 7 8 8 10 10 9 12 10 12 11 10 9 11 14 17 18 19 19
8 9 9 7 9 9 8 6 5 4 4 4 3 3 5 5 6 6 6 6 6 6 6 6 6 7 7 7 8 7 8 10 12 12 11 10 9 9 7 12 13 15 17
9 8 8 9 9 9 8 6 5 5 4 4 3 3 5 6 6 6 6 6 6 5 5 5 6 7 7 7 9 9 10 10 11 10 13 12 11 9 8 7 5 10 13
8 7 6 6 6 6 5 5 4 3 3 2 3 4 6 5 6 5 4 5 5 5 5 5 7 7 7 8 8 9 10 10 10 10 10 9 9 10 9 9 8 7 8
3 5 5 5 5 5 4 4 4 3 3 5 6 8 7 7 6 6 5 5 6 5 6 6 6 8 7 6 8 8 9 10 8 9 7 7 9 8 8 9 7 7 7
6 5 5 5 4 1 1 1 1 3 6 6 6 7 8 8 9 7 8 6 7 5 6 7 7 6 7 6 6 8 6 10 1 6 9 10 11 8 8 10 11 10 8
9 8 9 9 8 8 5 3 3 5 5 5 7 6 8 11 11 10 10 8 7 6 5 7 7 8 6 8 8 4 6 5 11 8 10 10 10 8 8 9 10 11 10
10 10 12 12 12 12 11 10 11 8 7 5 4 7 9 13 13 13 12 11 10 7 9 8 7 6 6 7 6 3 7 8 5 6 2 5 9 9 11 9 10 11 12
12 11 12 14 15 14 14 12 9 10 4 5 5 8 9 9 12 14 13 13 12 9 10 9 8 8 6 6 6 8 10 8 9 7 10 6 6 7 10 8 9 10 12
12 12 11 13 15 14 15 14 13 12 6 6 9 8 7 7 8 12 11 10 10 9 10 10 9 10 8 7 6 7 7 6 9 9 12 15 15 11 10 8 8 8 9
Wind_Direction
156 139 147 146 143 130 114 104 87 64 61 83 117 132 130 124 112 106 100 93 83 79 79 79 75 67 64 59 59 62 61 54 51 48 36 41 51 52 41 32 9 45 28
147 143 150 150 128 121 109 100 87 73 66 76 99 111 112 105 100 95 89 82 75 82 76 73 72 67 60 52 53 69 64 57 54 49 32 68 67 55 45 37 29 37 28
144 140 152 140 125 117 113 108 101 92 85 77 80 95 101 96 93 88 79 75 82 83 83 78 73 66 57 51 54 63 68 55 52 45 3 52 64 40 43 42 37 38 28
141 146 145 135 127 123 117 110 103 98 97 91 83 86 89 86 81 75 80 91 81 82 82 80 77 72 62 56 57 59 58 57 49 342 47 41 48 51 41 38 32 28 14
144 145 132 140 128 126 122 117 112 107 104 101 96 84 77 69 70 80 82 90 91 98 87 83 79 72 63 58 54 53 46 41 24 313 41 33 20 42 30 23 17 21 9
145 151 138 138 134 133 125 120 118 115 112 103 95 96 95 94 93 87 80 70 61 82 89 82 75 69 64 57 51 47 37 28 302 31 14 50 359 3 353 7 354 347 343
149 151 157 153 143 140 136 132 126 123 119 113 106 97 104 98 89 84 78 72 66 65 68 66 61 62 65 63 53 44 38 16 355 23 13 6 13 333 328 344 340 324 310
148 154 150 146 140 145 139 133 130 127 121 116 112 105 100 105 100 88 76 75 79 79 76 73 64 51 48 53 62 65 60 353 163 34 19 2 38 296 313 325 316 297 290
149 159 158 161 154 139 132 134 132 120 113 111 108 96 88 82 84 74 51 43 54 81 81 57 39 16 360 357 352 2 342 314 310 4 333 319 105 271 300 307 306 298 292
159 165 168 172 175 171 159 137 128 116 115 111 107 103 96 110 83 92 306 46 357 351 346 340 333 335 334 331 315 302 279 257 302 304 306 333 308 289 278 289 290 284 282
167 171 172 173 174 171 161 134 142 137 127 135 145 112 180 39 10 312 42 351 344 340 330 323 320 315 312 268 272 288 295 307 309 301 297 87 274 289 302 306 303 298 280
178 185 178 181 178 168 162 158 165 151 174 173 182 230 320 338 3 326 294 296 283 293 293 298 303 302 263 312 306 230 285 321 306 312 307 332 293 298 304 305 301 303 301
185 182 199 184 187 182 171 176 182 187 186 186 194 214 243 288 309 297 303 300 312 239 293 277 288 292 310 304 309 305 303 296 300 296 292 253 278 283 289 296 305 296 289
194 196 193 204 188 200 200 199 193 202 201 208 208 223 237 242 268 283 286 297 277 288 295 287 288 291 287 282 282 287 291 290 287 290 288 231 264 280 283 282 282 288 296
195 202 203 203 200 198 212 208 214 224 219 240 225 227 242 248 251 267 275 280 286 287 283 290 292 293 291 286 281 280 279 283 286 283 282 256 247 268 273 276 276 279 284
202 200 197 197 203 201 213 216 220 224 224 225 233 231 227 257 276 284 289 287 288 292 293 288 295 295 293 293 291 285 284 285 282 282 280 280 227 248 265 271 275 279 280
198 191 195 203 199 203 210 217 223 225 238 239 239 244 250 260 279 288 289 290 296 303 293 283 282 283 284 284 282 284 287 286 282 282 278 277 279 231 241 266 265 269 277
191 195 192 202 207 207 214 214 225 228 243 258 270 285 290 288 287 282 284 287 302 304 300 299 294 291 291 291 292 293 282 286 286 280 277 273 275 281 251 237 262 276 284
204 200 196 201 211 211 219 227 236 247 256 278 295 303 312 300 301 296 305 311 315 298 305 308 302 292 301 304 305 301 297 291 285 282 276 272 271 272 278 277 257 281 280
211 215 215 209 218 215 223 233 238 250 271 317 350 358 1 5 2 350 343 321 325 319 317 318 309 310 305 305 305 300 295 287 286 281 282 284 279 279 277 278 279 270 257
186 206 211 215 209 207 215 226 231 252 82 69 65 36 29 22 14 11 4 352 348 344 340 335 327 321 316 324 299 301 305 290 295 296 298 290 288 283 280 273 276 275 272
111 100 103 90 67 84 233 216 319 106 82 69 48 44 33 33 28 23 18 9 5 349 353 353 351 333 316 340 320 307 314 311 291 324 299 297 291 289 282 276 275 271 266
78 80 81 73 63 50 42 81 98 92 64 46 23 22 34 37 32 28 26 17 12 9 5 359 358 351 330 320 331 307 313 308 322 300 313 303 296 295 289 284 278 275 263
68 75 78 74 67 54 50 60 65 70 87 62 30 30 42 33 28 25 20 18 16 13 9 2 359 348 334 325 332 336 309 304 309 303 270 301 300 294 285 278 272 266 255
67 63 70 73 66 63 64 71 78 79 53 94 89 57 43 38 34 27 23 19 16 11 3 4 1 359 348 331 330 324 318 312 291 304 303 294 263 256 269 261 252 255 257
70 57 53 63 60 55 62 62 64 62 35 60 53 56 36 31 23 23 21 23 19 14 8 358 0 8 6 352 340 327 318 313 313 311 308 308 301 290 286 259 251 254 256